Time,TemperatureF,DewpointF,PressureIn,WindDirection,WindDirectionDegrees,WindSpeedMPH,WindSpeedGustMPH,Humidity,HourlyPrecipIn,Conditions,Clouds,dailyrainin,SolarRadiationWatts/m^2,SoftwareType,DateUTC
2013-10-06 00:01:00,78.9,72.9,29.92,ESE,103,0.0,0.0,82,0.00,,SCT040,0.00,0.00,VWS V14.00,2013-10-06 04:01:00,
2013-10-06 00:02:00,78.9,72.9,29.92,ESE,103,0.0,0.0,82,0.00,,SCT040,0.00,0.00,VWS V14.00,2013-10-06 04:02:00,
2013-10-06 00:07:00,78.8,72.8,29.92,ESE,103,0.0,0.0,82,0.00,,SCT040,0.00,0.00,VWS V14.00,2013-10-06 04:07:00,
2013-10-06 00:12:00,78.7,72.8,29.92,ESE,103,0.0,0.0,82,0.00,,SCT040,0.00,0.00,VWS V14.00,2013-10-06 04:12:00,
2013-10-06 00:17:00,78.6,73.0,29.92,ESE,103,0.0,0.0,83,0.00,,SCT040,0.00,0.00,VWS V14.00,2013-10-06 04:17:00,
2013-10-06 00:22:00,78.5,72.9,29.92,ESE,103,0.0,0.0,83,0.00,,SCT040,0.00,0.00,VWS V14.00,2013-10-06 04:22:00,
2013-10-06 00:27:00,78.4,72.8,29.92,ESE,103,0.0,0.0,83,0.00,,SCT040,0.00,0.00,VWS V14.00,2013-10-06 04:27:00,
2013-10-06 00:32:00,78.3,72.7,29.92,ESE,103,0.0,0.0,83,0.00,,SCT040,0.00,0.00,VWS V14.00,2013-10-06 04:32:00,
2013-10-06 00:37:00,78.2,72.6,29.92,ESE,103,0.0,0.0,83,0.00,,SCT040,0.00,0.00,VWS V14.00,2013-10-06 04:37:00,
2013-10-06 00:42:00,78.1,72.5,29.92,ESE,103,0.0,0.0,83,0.00,,SCT040,0.00,0.00,VWS V14.00,2013-10-06 04:42:00,
2013-10-06 00:47:00,78.0,72.8,29.92,ESE,103,0.0,0.0,84,0.00,,SCT040,0.00,0.00,VWS V14.00,2013-10-06 04:47:00,
2013-10-06 00:52:00,78.0,72.8,29.92,ESE,103,0.0,0.0,84,0.00,,SCT040,0.00,0.00,VWS V14.00,2013-10-06 04:52:00,
2013-10-06 00:57:00,77.9,73.0,29.92,ESE,103,0.0,0.0,85,0.00,,SCT040,0.00,0.00,VWS V14.00,2013-10-06 04:57:00,
2013-10-06 01:02:00,77.8,72.9,29.91,ESE,103,0.0,0.0,85,0.00,,SCT040,0.00,0.00,VWS V14.00,2013-10-06 05:02:00,
2013-10-06 01:07:00,77.6,72.7,29.91,ESE,103,0.0,0.0,85,0.00,,SCT040,0.00,0.00,VWS V14.00,2013-10-06 05:07:00,
2013-10-06 01:12:00,77.6,72.7,29.91,ESE,103,0.0,1.0,85,0.00,,SCT040,0.00,0.00,VWS V14.00,2013-10-06 05:12:00,
2013-10-06 01:17:00,77.6,72.7,29.91,ESE,103,0.0,0.0,85,0.00,,SCT040,0.00,0.00,VWS V14.00,2013-10-06 05:17:00,
2013-10-06 01:22:00,77.7,72.5,29.91,ESE,103,0.0,0.0,84,0.00,,SCT040,0.00,0.00,VWS V14.00,2013-10-06 05:22:00,
2013-10-06 01:27:00,77.7,72.5,29.91,ESE,103,0.0,0.0,84,0.00,,SCT040,0.00,0.00,VWS V14.00,2013-10-06 05:27:00,
2013-10-06 01:32:00,77.7,72.5,29.91,ESE,103,0.0,0.0,84,0.00,,SCT040,0.00,0.00,VWS V14.00,2013-10-06 05:32:00,
2013-10-06 01:37:00,77.7,72.5,29.91,ESE,103,0.0,0.0,84,0.00,,SCT040,0.00,0.00,VWS V14.00,2013-10-06 05:37:00,
2013-10-06 01:42:00,77.7,72.8,29.91,ESE,103,0.0,0.0,85,0.00,,SCT040,0.00,0.00,VWS V14.00,2013-10-06 05:42:00,
2013-10-06 01:47:00,77.7,72.8,29.91,ESE,103,0.0,0.0,85,0.00,,SCT040,0.00,0.00,VWS V14.00,2013-10-06 05:47:00,
2013-10-06 01:52:00,77.6,72.7,29.91,ESE,103,0.0,0.0,85,0.00,,SCT040,0.00,0.00,VWS V14.00,2013-10-06 05:52:00,
2013-10-06 01:57:00,77.5,72.6,29.90,ESE,103,0.0,0.0,85,0.00,,SCT040,0.00,0.00,VWS V14.00,2013-10-06 05:57:00,
2013-10-06 02:02:00,77.2,72.3,29.90,ESE,103,0.0,0.0,85,0.00,,SCT040,0.00,0.00,VWS V14.00,2013-10-06 06:02:00,
2013-10-06 02:07:00,76.9,72.1,29.90,ESE,103,0.0,0.0,85,0.00,,SCT040,0.00,0.00,VWS V14.00,2013-10-06 06:07:00,
2013-10-06 02:12:00,76.7,71.9,29.90,ESE,103,0.0,0.0,85,0.00,,SCT040,0.00,0.00,VWS V14.00,2013-10-06 06:12:00,
2013-10-06 02:18:00,76.6,72.1,29.89,ESE,103,0.0,0.0,86,0.00,,SCT040,0.00,0.00,VWS V14.00,2013-10-06 06:18:00,
2013-10-06 02:23:00,76.4,71.9,29.89,ESE,103,0.0,0.0,86,0.00,,SCT040,0.00,0.00,VWS V14.00,2013-10-06 06:23:00,
2013-10-06 02:28:00,76.2,71.7,29.89,ESE,103,0.0,0.0,86,0.00,,SCT040,0.00,0.00,VWS V14.00,2013-10-06 06:28:00,
2013-10-06 02:33:00,76.0,71.5,29.89,ESE,103,0.0,0.0,86,0.00,,SCT040,0.00,0.00,VWS V14.00,2013-10-06 06:33:00,
2013-10-06 02:38:00,75.8,71.7,29.89,ESE,103,0.0,0.0,87,0.00,,SCT040,0.00,0.00,VWS V14.00,2013-10-06 06:38:00,
2013-10-06 02:43:00,75.6,71.5,29.89,ESE,103,0.0,0.0,87,0.00,,SCT040,0.00,0.00,VWS V14.00,2013-10-06 06:43:00,
2013-10-06 02:48:00,75.7,71.6,29.88,ESE,103,0.0,0.0,87,0.00,,SCT040,0.00,0.00,VWS V14.00,2013-10-06 06:48:00,
2013-10-06 02:53:00,75.7,71.6,29.88,ESE,103,0.0,0.0,87,0.00,,SCT040,0.00,0.00,VWS V14.00,2013-10-06 06:53:00,
2013-10-06 02:58:00,75.5,71.4,29.88,ESE,103,0.0,0.0,87,0.00,,SCT040,0.00,0.00,VWS V14.00,2013-10-06 06:58:00,
2013-10-06 03:03:00,75.3,71.2,29.88,ESE,103,0.0,0.0,87,0.00,,SCT040,0.00,0.00,VWS V14.00,2013-10-06 07:03:00,
2013-10-06 03:08:00,75.2,71.1,29.87,ESE,103,0.0,0.0,87,0.00,,SCT040,0.00,0.00,VWS V14.00,2013-10-06 07:08:00,
2013-10-06 03:13:00,75.1,71.3,29.87,ESE,103,0.0,0.0,88,0.00,,SCT040,0.00,0.00,VWS V14.00,2013-10-06 07:13:00,
2013-10-06 03:18:00,74.9,71.1,29.87,ESE,103,0.0,0.0,88,0.00,,SCT040,0.00,0.00,VWS V14.00,2013-10-06 07:18:00,
2013-10-06 03:23:00,74.8,71.0,29.87,ESE,103,0.0,0.0,88,0.00,,SCT040,0.00,0.00,VWS V14.00,2013-10-06 07:23:00,
2013-10-06 03:28:00,74.9,71.1,29.87,ESE,103,0.0,0.0,88,0.00,,SCT040,0.00,0.00,VWS V14.00,2013-10-06 07:28:00,
2013-10-06 03:33:00,74.9,71.1,29.86,ESE,103,0.0,0.0,88,0.00,,SCT040,0.00,0.00,VWS V14.00,2013-10-06 07:33:00,
2013-10-06 03:38:00,74.9,71.1,29.87,ESE,103,0.0,0.0,88,0.00,,SCT040,0.00,0.00,VWS V14.00,2013-10-06 07:38:00,
2013-10-06 03:43:00,74.8,71.0,29.87,ESE,103,0.0,0.0,88,0.00,,SCT040,0.00,0.00,VWS V14.00,2013-10-06 07:43:00,
2013-10-06 03:48:00,74.8,71.0,29.86,ESE,103,0.0,0.0,88,0.00,,SCT040,0.00,0.00,VWS V14.00,2013-10-06 07:48:00,
2013-10-06 03:53:00,74.9,71.1,29.86,ESE,103,0.0,0.0,88,0.00,,SCT040,0.00,0.00,VWS V14.00,2013-10-06 07:53:00,
2013-10-06 03:58:00,74.8,71.0,29.86,ESE,103,0.0,0.0,88,0.00,,SCT040,0.00,0.00,VWS V14.00,2013-10-06 07:58:00,
2013-10-06 04:03:00,74.8,71.0,29.86,ESE,103,0.0,0.0,88,0.00,,SCT040,0.00,0.00,VWS V14.00,2013-10-06 08:03:00,
2013-10-06 04:08:00,74.7,70.9,29.86,ESE,103,0.0,0.0,88,0.00,,SCT040,0.00,0.00,VWS V14.00,2013-10-06 08:08:00,
2013-10-06 04:13:00,74.7,70.9,29.86,ESE,103,0.0,0.0,88,0.00,,SCT040,0.00,0.00,VWS V14.00,2013-10-06 08:13:00,
2013-10-06 04:18:00,74.6,70.8,29.86,ESE,103,0.0,0.0,88,0.00,,SCT040,0.00,0.00,VWS V14.00,2013-10-06 08:18:00,
2013-10-06 04:23:00,74.8,71.0,29.86,ESE,103,0.0,0.0,88,0.00,,SCT040,0.00,0.00,VWS V14.00,2013-10-06 08:23:00,
2013-10-06 04:28:00,74.8,71.0,29.86,ESE,103,0.0,0.0,88,0.00,,SCT040,0.00,0.00,VWS V14.00,2013-10-06 08:28:00,
2013-10-06 04:33:00,74.6,70.8,29.86,ESE,103,0.0,0.0,88,0.00,,SCT040,0.00,0.00,VWS V14.00,2013-10-06 08:33:00,
2013-10-06 04:38:00,74.7,70.9,29.85,ESE,103,0.0,0.0,88,0.00,,SCT040,0.00,0.00,VWS V14.00,2013-10-06 08:38:00,
2013-10-06 04:43:00,74.6,70.8,29.85,ESE,103,0.0,0.0,88,0.00,,SCT040,0.00,0.00,VWS V14.00,2013-10-06 08:43:00,
2013-10-06 04:48:00,74.7,70.9,29.85,ESE,103,0.0,0.0,88,0.00,,SCT040,0.00,0.00,VWS V14.00,2013-10-06 08:48:00,
2013-10-06 04:53:00,74.6,70.8,29.85,ESE,103,0.0,0.0,88,0.00,,SCT040,0.00,0.00,VWS V14.00,2013-10-06 08:53:00,
2013-10-06 04:58:00,74.5,70.7,29.85,ESE,103,0.0,0.0,88,0.00,,SCT040,0.00,0.00,VWS V14.00,2013-10-06 08:58:00,
2013-10-06 05:03:00,74.6,71.2,29.85,ESE,103,0.0,0.0,89,0.00,,SCT040,0.00,0.00,VWS V14.00,2013-10-06 09:03:00,
2013-10-06 05:08:00,74.6,71.2,29.85,ESE,103,0.0,0.0,89,0.00,,SCT040,0.00,0.00,VWS V14.00,2013-10-06 09:08:00,
2013-10-06 05:09:00,74.6,71.2,29.85,ESE,103,0.0,0.0,89,0.00,,SCT040,0.00,0.00,VWS V14.00,2013-10-06 09:09:00,
2013-10-06 05:14:00,74.6,71.2,29.85,ESE,103,0.0,0.0,89,0.00,,SCT040,0.00,0.00,VWS V14.00,2013-10-06 09:14:00,
2013-10-06 05:19:00,74.7,71.2,29.85,ESE,103,0.0,0.0,89,0.00,,SCT040,0.00,0.00,VWS V14.00,2013-10-06 09:19:00,
2013-10-06 05:24:00,74.6,71.2,29.85,ESE,103,0.0,0.0,89,0.00,,SCT040,0.00,0.00,VWS V14.00,2013-10-06 09:24:00,
2013-10-06 05:29:00,74.7,71.2,29.85,ESE,103,0.0,0.0,89,0.00,,SCT040,0.00,0.00,VWS V14.00,2013-10-06 09:29:00,
2013-10-06 05:34:00,74.6,71.2,29.86,ESE,103,0.0,0.0,89,0.00,,SCT040,0.00,0.00,VWS V14.00,2013-10-06 09:34:00,
2013-10-06 05:39:00,74.6,71.2,29.86,ESE,103,0.0,0.0,89,0.00,,SCT040,0.00,0.00,VWS V14.00,2013-10-06 09:39:00,
2013-10-06 05:44:00,74.4,70.9,29.86,ESE,103,0.0,0.0,89,0.00,,SCT040,0.00,0.00,VWS V14.00,2013-10-06 09:44:00,
2013-10-06 05:49:00,74.4,70.9,29.86,ESE,103,0.0,0.0,89,0.00,,SCT040,0.00,0.00,VWS V14.00,2013-10-06 09:49:00,
2013-10-06 05:54:00,74.5,71.1,29.86,ESE,103,0.0,0.0,89,0.00,,SCT040,0.00,0.00,VWS V14.00,2013-10-06 09:54:00,
2013-10-06 05:59:00,74.3,70.8,29.86,ESE,103,0.0,0.0,89,0.00,,SCT040,0.00,0.00,VWS V14.00,2013-10-06 09:59:00,
2013-10-06 06:04:00,74.0,70.6,29.87,ESE,103,0.0,0.0,89,0.00,,SCT040,0.00,0.00,VWS V14.00,2013-10-06 10:04:00,
2013-10-06 06:09:00,73.7,70.3,29.87,ESE,103,0.0,0.0,89,0.00,,SCT040,0.00,0.00,VWS V14.00,2013-10-06 10:09:00,
2013-10-06 06:14:00,73.6,70.2,29.87,ESE,103,0.0,0.0,89,0.00,,SCT040,0.00,0.00,VWS V14.00,2013-10-06 10:14:00,
2013-10-06 06:19:00,73.7,70.3,29.87,ESE,103,0.0,0.0,89,0.00,,SCT040,0.00,0.00,VWS V14.00,2013-10-06 10:19:00,
2013-10-06 06:24:00,73.9,70.5,29.87,ESE,103,0.0,0.0,89,0.00,,SCT040,0.00,0.00,VWS V14.00,2013-10-06 10:24:00,
2013-10-06 06:29:00,74.1,70.7,29.87,ESE,103,0.0,0.0,89,0.00,,SCT040,0.00,0.00,VWS V14.00,2013-10-06 10:29:00,
2013-10-06 06:34:00,74.2,70.8,29.87,ESE,103,0.0,0.0,89,0.00,,SCT040,0.00,0.00,VWS V14.00,2013-10-06 10:34:00,
2013-10-06 06:39:00,74.3,70.8,29.87,ESE,103,0.0,0.0,89,0.00,,SCT040,0.00,0.00,VWS V14.00,2013-10-06 10:39:00,
2013-10-06 06:44:00,74.5,71.1,29.87,ESE,103,0.0,0.0,89,0.00,,SCT040,0.00,0.00,VWS V14.00,2013-10-06 10:44:00,
2013-10-06 06:50:00,74.4,70.9,29.87,ESE,103,0.0,0.0,89,0.00,,SCT040,0.00,0.00,VWS V14.00,2013-10-06 10:50:00,
2013-10-06 06:55:00,74.4,70.9,29.87,ESE,103,0.0,0.0,89,0.00,,SCT040,0.00,0.00,VWS V14.00,2013-10-06 10:55:00,
2013-10-06 07:00:00,74.4,70.9,29.87,ESE,103,0.0,0.0,89,0.00,,SCT040,0.00,0.00,VWS V14.00,2013-10-06 11:00:00,
2013-10-06 07:05:00,74.4,70.9,29.87,ESE,103,0.0,0.0,89,0.00,,SCT040,0.00,0.00,VWS V14.00,2013-10-06 11:05:00,
2013-10-06 07:10:00,74.3,70.8,29.88,ESE,103,0.0,0.0,89,0.00,,SCT040,0.00,0.00,VWS V14.00,2013-10-06 11:10:00,
2013-10-06 07:15:00,74.4,70.9,29.88,ESE,103,0.0,0.0,89,0.00,,SCT040,0.00,0.00,VWS V14.00,2013-10-06 11:15:00,
2013-10-06 07:20:00,74.4,70.9,29.88,ESE,103,0.0,0.0,89,0.00,,SCT040,0.00,0.00,VWS V14.00,2013-10-06 11:20:00,
2013-10-06 07:25:00,74.3,70.8,29.88,ESE,103,0.0,0.0,89,0.00,,SCT040,0.00,0.00,VWS V14.00,2013-10-06 11:25:00,
2013-10-06 07:30:00,74.4,70.9,29.88,ESE,103,0.0,0.0,89,0.00,,SCT040,0.00,7.00,VWS V14.00,2013-10-06 11:30:00,
2013-10-06 07:35:00,74.4,70.9,29.88,ESE,103,0.0,0.0,89,0.00,,SCT042,0.00,9.00,VWS V14.00,2013-10-06 11:35:00,
2013-10-06 07:40:00,74.5,71.1,29.88,ESE,103,1.0,1.0,89,0.00,,SCT042,0.00,11.00,VWS V14.00,2013-10-06 11:40:00,
2013-10-06 07:45:00,74.4,70.9,29.88,ESE,103,0.0,0.0,89,0.00,,SCT042,0.00,12.00,VWS V14.00,2013-10-06 11:45:00,
2013-10-06 07:50:00,74.6,71.2,29.88,ESE,103,0.0,0.0,89,0.00,,SCT042,0.00,12.00,VWS V14.00,2013-10-06 11:50:00,
2013-10-06 07:55:00,74.8,71.3,29.89,ESE,103,0.0,0.0,89,0.00,,SCT042,0.00,63.00,VWS V14.00,2013-10-06 11:55:00,
2013-10-06 08:00:00,75.1,71.6,29.89,ESE,103,0.0,0.0,89,0.00,,SCT042,0.00,121.00,VWS V14.00,2013-10-06 12:00:00,
2013-10-06 08:05:00,75.6,72.1,29.89,ESE,103,0.0,0.0,89,0.00,,SCT042,0.00,74.00,VWS V14.00,2013-10-06 12:05:00,
2013-10-06 08:10:00,75.6,72.1,29.89,ESE,103,0.0,0.0,89,0.00,,SCT042,0.00,88.00,VWS V14.00,2013-10-06 12:10:00,
2013-10-06 08:15:00,76.0,72.5,29.89,ESE,103,0.0,1.0,89,0.00,,SCT042,0.00,109.00,VWS V14.00,2013-10-06 12:15:00,
2013-10-06 08:20:00,76.2,72.7,29.89,North,5,0.0,0.0,89,0.00,,SCT042,0.00,35.00,VWS V14.00,2013-10-06 12:20:00,
2013-10-06 08:25:00,76.5,73.0,29.89,North,5,0.0,0.0,89,0.00,,SCT042,0.00,35.00,VWS V14.00,2013-10-06 12:25:00,
2013-10-06 08:30:00,76.6,73.1,29.89,North,5,0.0,0.0,89,0.00,,SCT042,0.00,49.00,VWS V14.00,2013-10-06 12:30:00,
2013-10-06 08:35:00,76.7,73.2,29.89,North,5,0.0,0.0,89,0.00,,BKN075,0.00,116.00,VWS V14.00,2013-10-06 12:35:00,
2013-10-06 08:40:00,76.9,73.4,29.89,North,5,0.0,2.0,89,0.00,,BKN075,0.00,121.00,VWS V14.00,2013-10-06 12:40:00,
2013-10-06 08:45:00,77.2,73.7,29.89,North,5,0.0,0.0,89,0.00,,BKN075,0.00,120.00,VWS V14.00,2013-10-06 12:45:00,
2013-10-06 08:50:00,77.4,73.6,29.90,North,5,0.0,0.0,88,0.00,,BKN075,0.00,118.00,VWS V14.00,2013-10-06 12:50:00,
2013-10-06 08:56:00,77.7,73.9,29.90,North,5,0.0,1.0,88,0.00,,BKN075,0.00,134.00,VWS V14.00,2013-10-06 12:56:00,
2013-10-06 09:01:00,78.0,74.2,29.90,North,5,0.0,3.0,88,0.00,,BKN075,0.00,135.00,VWS V14.00,2013-10-06 13:01:00,
2013-10-06 09:06:00,78.4,74.6,29.90,North,9,0.0,1.0,88,0.00,,BKN075,0.00,141.00,VWS V14.00,2013-10-06 13:06:00,
2013-10-06 09:11:00,78.7,74.5,29.90,North,9,0.0,1.0,87,0.00,,BKN075,0.00,144.00,VWS V14.00,2013-10-06 13:11:00,
2013-10-06 09:16:00,79.0,74.5,29.90,North,9,0.0,0.0,86,0.00,,BKN075,0.00,30.00,VWS V14.00,2013-10-06 13:16:00,
2013-10-06 09:21:00,79.1,74.6,29.90,North,9,0.0,0.0,86,0.00,,BKN075,0.00,39.00,VWS V14.00,2013-10-06 13:21:00,
2013-10-06 09:26:00,79.3,74.8,29.90,North,9,0.0,1.0,86,0.00,,BKN075,0.00,74.00,VWS V14.00,2013-10-06 13:26:00,
2013-10-06 09:31:00,79.5,74.9,29.90,North,360,0.0,0.0,86,0.00,,BKN075,0.00,181.00,VWS V14.00,2013-10-06 13:31:00,
2013-10-06 09:36:00,79.8,75.2,29.90,North,360,0.0,0.0,86,0.00,,BKN075,0.00,193.00,VWS V14.00,2013-10-06 13:36:00,
2013-10-06 09:41:00,80.0,75.1,29.90,North,360,0.0,0.0,85,0.00,,BKN075,0.00,58.00,VWS V14.00,2013-10-06 13:41:00,
2013-10-06 09:46:00,80.3,75.4,29.90,North,360,0.0,0.0,85,0.00,,BKN075,0.00,56.00,VWS V14.00,2013-10-06 13:46:00,
2013-10-06 09:51:00,80.5,75.2,29.91,North,360,0.0,0.0,84,0.00,,BKN075,0.00,74.00,VWS V14.00,2013-10-06 13:51:00,
2013-10-06 09:56:00,80.8,75.5,29.91,North,360,0.0,0.0,84,0.00,,BKN075,0.00,123.00,VWS V14.00,2013-10-06 13:56:00,
2013-10-06 10:01:00,81.0,75.3,29.91,North,360,0.0,0.0,83,0.00,,BKN075,0.00,77.00,VWS V14.00,2013-10-06 14:01:00,
2013-10-06 10:06:00,81.1,75.4,29.91,North,360,0.0,0.0,83,0.00,,BKN075,0.00,63.00,VWS V14.00,2013-10-06 14:06:00,
2013-10-06 10:11:00,81.2,75.2,29.91,North,360,0.0,3.0,82,0.00,,BKN075,0.00,65.00,VWS V14.00,2013-10-06 14:11:00,
2013-10-06 10:16:00,81.1,75.1,29.91,North,360,0.0,0.0,82,0.00,,BKN075,0.00,62.00,VWS V14.00,2013-10-06 14:16:00,
2013-10-06 10:21:00,81.2,75.2,29.91,North,360,0.0,0.0,82,0.00,,BKN075,0.00,53.00,VWS V14.00,2013-10-06 14:21:00,
2013-10-06 10:26:00,81.3,75.3,29.91,North,360,0.0,4.0,82,0.00,,BKN075,0.00,53.00,VWS V14.00,2013-10-06 14:26:00,
2013-10-06 10:31:00,81.3,75.3,29.91,North,360,0.0,1.0,82,0.00,,BKN075,0.00,53.00,VWS V14.00,2013-10-06 14:31:00,
2013-10-06 10:36:00,81.3,75.3,29.91,North,360,2.0,3.0,82,0.00,,BKN039,0.00,79.00,VWS V14.00,2013-10-06 14:36:00,
2013-10-06 10:41:00,81.4,75.7,29.91,North,360,0.0,0.0,83,0.00,,BKN039,0.00,193.00,VWS V14.00,2013-10-06 14:41:00,
2013-10-06 10:46:00,81.4,73.1,29.91,North,360,0.0,1.0,76,0.00,,BKN039,0.00,185.00,VWS V14.00,2013-10-06 14:46:00,
2013-10-06 10:51:00,82.4,74.9,29.91,North,360,0.0,1.0,78,0.00,,BKN039,0.00,183.00,VWS V14.00,2013-10-06 14:51:00,
2013-10-06 10:56:00,83.1,74.8,29.91,North,351,4.0,4.0,76,0.00,,BKN039,0.00,134.00,VWS V14.00,2013-10-06 14:56:00,
2013-10-06 11:01:00,83.7,74.1,29.91,East,82,3.0,4.0,73,0.00,,BKN039,0.00,172.00,VWS V14.00,2013-10-06 15:01:00,
2013-10-06 11:06:00,84.0,75.2,29.91,East,82,0.0,0.0,75,0.00,,BKN039,0.00,163.00,VWS V14.00,2013-10-06 15:06:00,
2013-10-06 11:11:00,84.4,74.8,29.91,East,87,1.0,1.0,73,0.00,,BKN039,0.00,174.00,VWS V14.00,2013-10-06 15:11:00,
2013-10-06 11:16:00,84.8,75.2,29.91,SE,125,6.0,6.0,73,0.00,,BKN039,0.00,169.00,VWS V14.00,2013-10-06 15:16:00,
2013-10-06 11:21:00,85.1,74.2,29.91,SE,127,3.0,5.0,70,0.00,,BKN039,0.00,167.00,VWS V14.00,2013-10-06 15:21:00,
2013-10-06 11:26:00,85.2,74.3,29.91,SE,132,3.0,6.0,70,0.00,,BKN039,0.00,169.00,VWS V14.00,2013-10-06 15:26:00,
2013-10-06 11:32:00,85.4,74.5,29.91,SE,136,0.0,3.0,70,0.00,,FEW065,0.00,169.00,VWS V14.00,2013-10-06 15:32:00,
2013-10-06 11:36:00,85.9,74.6,29.91,SE,138,4.0,4.0,69,0.00,,FEW065,0.00,174.00,VWS V14.00,2013-10-06 15:36:00,
2013-10-06 11:42:00,86.3,74.5,29.91,South,180,5.0,5.0,68,0.00,,FEW065,0.00,169.00,VWS V14.00,2013-10-06 15:42:00,
2013-10-06 11:47:00,86.5,73.3,29.90,South,183,5.0,7.0,65,0.00,,FEW065,0.00,178.00,VWS V14.00,2013-10-06 15:47:00,
2013-10-06 11:52:00,86.7,73.5,29.90,South,183,4.0,4.0,65,0.00,,FEW065,0.00,181.00,VWS V14.00,2013-10-06 15:52:00,
2013-10-06 11:57:00,87.1,73.9,29.90,South,183,0.0,0.0,65,0.00,,FEW065,0.00,176.00,VWS V14.00,2013-10-06 15:57:00,
2013-10-06 12:02:00,87.5,72.4,29.90,South,178,3.0,9.0,61,0.00,,FEW065,0.00,171.00,VWS V14.00,2013-10-06 16:02:00,
2013-10-06 12:07:00,87.1,71.0,29.90,SSE,168,0.0,4.0,59,0.00,,FEW065,0.00,155.00,VWS V14.00,2013-10-06 16:07:00,
2013-10-06 12:12:00,86.7,71.7,29.90,South,173,1.0,4.0,61,0.00,,FEW065,0.00,163.00,VWS V14.00,2013-10-06 16:12:00,
2013-10-06 12:17:00,87.1,70.5,29.89,SSE,167,1.0,1.0,58,0.00,,FEW065,0.00,172.00,VWS V14.00,2013-10-06 16:17:00,
2013-10-06 12:22:00,87.3,70.7,29.89,SSE,165,3.0,5.0,58,0.00,,FEW065,0.00,174.00,VWS V14.00,2013-10-06 16:22:00,
2013-10-06 12:27:00,87.6,70.0,29.89,SSE,162,5.0,6.0,56,0.00,,FEW065,0.00,188.00,VWS V14.00,2013-10-06 16:27:00,
2013-10-06 12:32:00,87.8,71.2,29.89,SSE,166,1.0,4.0,58,0.00,,BKN085,0.00,186.00,VWS V14.00,2013-10-06 16:32:00,
2013-10-06 12:37:00,88.4,71.2,29.89,SSE,163,2.0,9.0,57,0.00,,BKN085,0.00,186.00,VWS V14.00,2013-10-06 16:37:00,
2013-10-06 12:42:00,88.6,71.4,29.89,SSE,160,0.0,5.0,57,0.00,,BKN085,0.00,186.00,VWS V14.00,2013-10-06 16:42:00,
2013-10-06 12:47:00,88.9,72.7,29.88,South,169,3.0,7.0,59,0.00,,BKN085,0.00,176.00,VWS V14.00,2013-10-06 16:47:00,
2013-10-06 12:52:00,89.0,71.8,29.88,South,173,9.0,12.0,57,0.00,,BKN085,0.00,163.00,VWS V14.00,2013-10-06 16:52:00,
2013-10-06 12:57:00,88.7,71.5,29.88,SSE,167,7.0,8.0,57,0.00,,BKN085,0.00,158.00,VWS V14.00,2013-10-06 16:57:00,
2013-10-06 13:02:00,88.6,70.9,29.87,South,170,3.0,9.0,56,0.00,,BKN085,0.00,163.00,VWS V14.00,2013-10-06 17:02:00,
2013-10-06 13:07:00,88.5,70.3,29.87,SSE,164,7.0,10.0,55,0.00,,BKN085,0.00,174.00,VWS V14.00,2013-10-06 17:07:00,
2013-10-06 13:12:00,88.2,70.0,29.87,South,180,5.0,11.0,55,0.00,,BKN085,0.00,199.00,VWS V14.00,2013-10-06 17:12:00,
2013-10-06 13:17:00,88.0,68.2,29.87,South,176,0.0,5.0,52,0.00,,BKN085,0.00,174.00,VWS V14.00,2013-10-06 17:17:00,
2013-10-06 13:22:00,87.7,71.1,29.86,South,172,5.0,6.0,58,0.00,,BKN085,0.00,174.00,VWS V14.00,2013-10-06 17:22:00,
2013-10-06 13:27:00,88.1,70.4,29.87,South,169,4.0,4.0,56,0.00,,BKN085,0.00,142.00,VWS V14.00,2013-10-06 17:27:00,
2013-10-06 13:32:00,88.3,70.6,29.86,SE,133,4.0,8.0,56,0.00,,BKN085,0.00,199.00,VWS V14.00,2013-10-06 17:32:00,
2013-10-06 13:37:00,88.1,71.0,29.86,SE,129,3.0,3.0,57,0.00,,BKN085,0.00,139.00,VWS V14.00,2013-10-06 17:37:00,
2013-10-06 13:42:00,88.0,70.9,29.86,South,179,0.0,4.0,57,0.00,,BKN085,0.00,139.00,VWS V14.00,2013-10-06 17:42:00,
2013-10-06 13:47:00,88.1,70.4,29.86,SSE,157,0.0,5.0,56,0.00,,BKN085,0.00,158.00,VWS V14.00,2013-10-06 17:47:00,
2013-10-06 13:52:00,88.1,70.4,29.86,SSE,164,5.0,7.0,56,0.00,,SCT070CU,0.00,121.00,VWS V14.00,2013-10-06 17:52:00,
2013-10-06 13:57:00,88.3,71.2,29.85,South,186,6.0,10.0,57,0.00,,SCT070CU,0.00,207.00,VWS V14.00,2013-10-06 17:57:00,
2013-10-06 14:02:00,88.4,70.2,29.85,SSE,150,6.0,10.0,55,0.00,,SCT070CU,0.00,186.00,VWS V14.00,2013-10-06 18:02:00,
2013-10-06 14:07:00,88.2,71.1,29.85,SSE,150,0.0,5.0,57,0.00,,SCT070CU,0.00,174.00,VWS V14.00,2013-10-06 18:07:00,
2013-10-06 14:12:00,88.2,72.1,29.85,SSE,152,9.0,9.0,59,0.00,,SCT070CU,0.00,174.00,VWS V14.00,2013-10-06 18:12:00,
2013-10-06 14:17:00,88.4,71.2,29.85,SSE,155,10.0,10.0,57,0.00,,SCT070CU,0.00,165.00,VWS V14.00,2013-10-06 18:17:00,
2013-10-06 14:22:00,88.3,71.2,29.85,South,182,2.0,2.0,57,0.00,,SCT070CU,0.00,158.00,VWS V14.00,2013-10-06 18:22:00,
2013-10-06 14:27:00,88.5,70.8,29.84,South,185,0.0,6.0,56,0.00,,SCT070CU,0.00,155.00,VWS V14.00,2013-10-06 18:27:00,
2013-10-06 14:32:00,88.3,70.6,29.85,SSE,163,2.0,5.0,56,0.00,,SCT090,0.00,151.00,VWS V14.00,2013-10-06 18:32:00,
2013-10-06 14:37:00,87.8,70.2,29.84,SE,131,5.0,6.0,56,0.00,,SCT090,0.00,148.00,VWS V14.00,2013-10-06 18:37:00,
2013-10-06 14:42:00,87.8,70.2,29.84,South,180,5.0,5.0,56,0.00,,SCT090,0.00,148.00,VWS V14.00,2013-10-06 18:42:00,
2013-10-06 14:47:00,88.4,69.7,29.84,South,175,4.0,6.0,54,0.00,,SCT090,0.00,146.00,VWS V14.00,2013-10-06 18:47:00,
2013-10-06 14:52:00,88.3,69.6,29.84,SE,138,2.0,5.0,54,0.00,,SCT090,0.00,144.00,VWS V14.00,2013-10-06 18:52:00,
2013-10-06 14:57:00,87.4,69.8,29.84,SE,128,0.0,1.0,56,0.00,,SCT090,0.00,144.00,VWS V14.00,2013-10-06 18:57:00,
2013-10-06 15:03:00,87.4,68.7,29.84,SE,128,7.0,7.0,54,0.00,,SCT090,0.00,127.00,VWS V14.00,2013-10-06 19:03:00,
2013-10-06 15:08:00,87.4,69.8,29.84,SSE,156,3.0,6.0,56,0.00,,SCT090,0.00,142.00,VWS V14.00,2013-10-06 19:08:00,
2013-10-06 15:13:00,87.6,69.4,29.83,SSE,149,0.0,5.0,55,0.00,,SCT090,0.00,135.00,VWS V14.00,2013-10-06 19:13:00,
2013-10-06 15:18:00,87.7,69.5,29.83,SSE,161,3.0,9.0,55,0.00,,SCT090,0.00,134.00,VWS V14.00,2013-10-06 19:18:00,
2013-10-06 15:23:00,88.2,70.5,29.83,South,179,7.0,10.0,56,0.00,,SCT090,0.00,128.00,VWS V14.00,2013-10-06 19:23:00,
2013-10-06 15:28:00,88.2,70.5,29.83,SSE,157,3.0,8.0,56,0.00,,SCT090,0.00,125.00,VWS V14.00,2013-10-06 19:28:00,
2013-10-06 15:33:00,88.2,70.0,29.83,SSE,155,10.0,10.0,55,0.00,,SCT070CU,0.00,125.00,VWS V14.00,2013-10-06 19:33:00,
2013-10-06 15:38:00,88.4,70.2,29.82,SSE,159,4.0,7.0,55,0.00,,SCT070CU,0.00,121.00,VWS V14.00,2013-10-06 19:38:00,
2013-10-06 15:43:00,88.2,70.5,29.82,SSE,168,6.0,12.0,56,0.00,,SCT070CU,0.00,125.00,VWS V14.00,2013-10-06 19:43:00,
2013-10-06 15:48:00,87.9,71.8,29.82,South,179,5.0,9.0,59,0.00,,SCT070CU,0.00,125.00,VWS V14.00,2013-10-06 19:48:00,
2013-10-06 15:53:00,87.2,71.6,29.82,ESE,123,4.0,7.0,60,0.00,,SCT070CU,0.00,116.00,VWS V14.00,2013-10-06 19:53:00,
2013-10-06 15:58:00,87.2,70.6,29.82,SE,130,6.0,11.0,58,0.00,,SCT070CU,0.00,113.00,VWS V14.00,2013-10-06 19:58:00,
2013-10-06 16:03:00,86.6,71.1,29.82,SE,127,6.0,7.0,60,0.00,,SCT070CU,0.00,113.00,VWS V14.00,2013-10-06 20:03:00,
2013-10-06 16:08:00,86.7,70.2,29.82,SSE,155,4.0,10.0,58,0.00,,SCT070CU,0.00,113.00,VWS V14.00,2013-10-06 20:08:00,
2013-10-06 16:13:00,87.0,70.4,29.82,SSE,157,5.0,6.0,58,0.00,,SCT070CU,0.00,109.00,VWS V14.00,2013-10-06 20:13:00,
2013-10-06 16:18:00,87.0,70.4,29.82,SE,128,5.0,5.0,58,0.00,,SCT070CU,0.00,104.00,VWS V14.00,2013-10-06 20:18:00,
2013-10-06 16:23:00,86.9,69.8,29.82,SSE,147,2.0,6.0,57,0.00,,SCT070CU,0.00,102.00,VWS V14.00,2013-10-06 20:23:00,
2013-10-06 16:28:00,86.8,69.2,29.82,SSE,155,5.0,9.0,56,0.00,,SCT070CU,0.00,100.00,VWS V14.00,2013-10-06 20:28:00,
2013-10-06 16:33:00,87.0,69.4,29.82,SSE,157,7.0,7.0,56,0.00,,SCT070CU,0.00,98.00,VWS V14.00,2013-10-06 20:33:00,
2013-10-06 16:38:00,87.0,69.4,29.82,SSE,149,9.0,9.0,56,0.00,,SCT070CU,0.00,95.00,VWS V14.00,2013-10-06 20:38:00,
2013-10-06 16:43:00,86.9,69.3,29.82,SE,138,3.0,6.0,56,0.00,,SCT070CU,0.00,95.00,VWS V14.00,2013-10-06 20:43:00,
2013-10-06 16:48:00,86.9,69.3,29.82,SE,136,7.0,7.0,56,0.00,,SCT070CU,0.00,95.00,VWS V14.00,2013-10-06 20:48:00,
2013-10-06 16:53:00,86.9,69.3,29.82,SE,135,5.0,9.0,56,0.00,,SCT070CU,0.00,95.00,VWS V14.00,2013-10-06 20:53:00,
2013-10-06 16:58:00,86.7,68.6,29.82,SSE,149,7.0,7.0,55,0.00,,SCT070CU,0.00,93.00,VWS V14.00,2013-10-06 20:58:00,
2013-10-06 17:03:00,86.7,69.1,29.82,SSE,155,6.0,9.0,56,0.00,,SCT070CU,0.00,93.00,VWS V14.00,2013-10-06 21:03:00,
2013-10-06 17:08:00,86.6,69.1,29.83,South,169,5.0,6.0,56,0.00,,SCT070CU,0.00,91.00,VWS V14.00,2013-10-06 21:08:00,
2013-10-06 17:13:00,86.5,69.5,29.82,SSE,164,5.0,11.0,57,0.00,,SCT070CU,0.00,90.00,VWS V14.00,2013-10-06 21:13:00,
2013-10-06 17:18:00,86.3,69.3,29.82,SSE,157,4.0,10.0,57,0.00,,SCT070CU,0.00,88.00,VWS V14.00,2013-10-06 21:18:00,
2013-10-06 17:23:00,86.0,69.0,29.82,SSE,147,4.0,6.0,57,0.00,,SCT070CU,0.00,88.00,VWS V14.00,2013-10-06 21:23:00,
2013-10-06 17:28:00,86.0,69.5,29.82,SSE,158,4.0,7.0,58,0.00,,SCT070CU,0.00,84.00,VWS V14.00,2013-10-06 21:28:00,
2013-10-06 17:33:00,86.0,69.5,29.82,SSE,159,3.0,7.0,58,0.00,,FEW035CU,0.00,83.00,VWS V14.00,2013-10-06 21:33:00,
2013-10-06 17:38:00,86.1,69.6,29.82,SSE,155,4.0,6.0,58,0.00,,FEW035CU,0.00,81.00,VWS V14.00,2013-10-06 21:38:00,
2013-10-06 17:43:00,86.2,70.2,29.82,SSE,162,7.0,7.0,59,0.00,,FEW035CU,0.00,77.00,VWS V14.00,2013-10-06 21:43:00,
2013-10-06 17:48:00,85.9,69.9,29.83,SSE,164,4.0,8.0,59,0.00,,FEW035CU,0.00,76.00,VWS V14.00,2013-10-06 21:48:00,
2013-10-06 17:53:00,85.7,70.2,29.83,SSE,165,3.0,6.0,60,0.00,,FEW035CU,0.00,72.00,VWS V14.00,2013-10-06 21:53:00,
2013-10-06 17:58:00,85.5,70.5,29.83,SSE,167,2.0,10.0,61,0.00,,FEW035CU,0.00,69.00,VWS V14.00,2013-10-06 21:58:00,
2013-10-06 18:03:00,85.3,71.3,29.83,South,171,5.0,6.0,63,0.00,,FEW035CU,0.00,65.00,VWS V14.00,2013-10-06 22:03:00,
2013-10-06 18:08:00,85.0,71.5,29.83,SSE,155,5.0,6.0,64,0.00,,FEW035CU,0.00,62.00,VWS V14.00,2013-10-06 22:08:00,
2013-10-06 18:13:00,85.0,71.9,29.83,SSE,156,3.0,7.0,65,0.00,,FEW035CU,0.00,56.00,VWS V14.00,2013-10-06 22:13:00,
2013-10-06 18:18:00,84.8,71.7,29.83,South,173,3.0,4.0,65,0.00,,FEW035CU,0.00,49.00,VWS V14.00,2013-10-06 22:18:00,
2013-10-06 18:23:00,84.5,71.9,29.84,South,171,0.0,7.0,66,0.00,,FEW035CU,0.00,44.00,VWS V14.00,2013-10-06 22:23:00,
2013-10-06 18:29:00,84.3,71.7,29.83,SSE,167,0.0,2.0,66,0.00,,FEW035CU,0.00,40.00,VWS V14.00,2013-10-06 22:29:00,
2013-10-06 18:34:00,84.2,72.1,29.83,SSE,163,7.0,10.0,67,0.00,,FEW035CU,0.00,33.00,VWS V14.00,2013-10-06 22:34:00,
2013-10-06 18:39:00,83.9,72.2,29.83,SSE,163,1.0,1.0,68,0.00,,FEW035CU,0.00,26.00,VWS V14.00,2013-10-06 22:39:00,
2013-10-06 18:44:00,83.7,72.5,29.84,SSE,164,1.0,7.0,69,0.00,,FEW035CU,0.00,5.00,VWS V14.00,2013-10-06 22:44:00,
2013-10-06 18:49:00,83.5,72.3,29.84,SSE,164,3.0,6.0,69,0.00,,FEW035CU,0.00,5.00,VWS V14.00,2013-10-06 22:49:00,
2013-10-06 18:54:00,83.2,72.4,29.84,SSE,165,4.0,7.0,70,0.00,,FEW035CU,0.00,0.00,VWS V14.00,2013-10-06 22:54:00,
2013-10-06 18:59:00,83.0,72.6,29.84,SSE,165,5.0,6.0,71,0.00,,FEW035CU,0.00,0.00,VWS V14.00,2013-10-06 22:59:00,
2013-10-06 19:04:00,82.9,72.5,29.84,SSE,165,0.0,0.0,71,0.00,,FEW035CU,0.00,0.00,VWS V14.00,2013-10-06 23:04:00,
2013-10-06 19:09:00,82.7,72.8,29.84,SSE,165,3.0,7.0,72,0.00,,FEW035CU,0.00,0.00,VWS V14.00,2013-10-06 23:09:00,
2013-10-06 19:14:00,82.6,72.7,29.84,SSE,164,5.0,6.0,72,0.00,,FEW035CU,0.00,0.00,VWS V14.00,2013-10-06 23:14:00,
2013-10-06 19:19:00,82.5,72.6,29.84,SSE,164,0.0,5.0,72,0.00,,FEW035CU,0.00,0.00,VWS V14.00,2013-10-06 23:19:00,
2013-10-06 19:24:00,82.5,72.6,29.84,SSE,164,0.0,2.0,72,0.00,,FEW035CU,0.00,0.00,VWS V14.00,2013-10-06 23:24:00,
2013-10-06 19:29:00,82.4,72.5,29.85,SSE,164,0.0,0.0,72,0.00,,FEW035CU,0.00,0.00,VWS V14.00,2013-10-06 23:29:00,
2013-10-06 19:34:00,82.4,72.5,29.85,SSE,164,0.0,1.0,72,0.00,,FEW035CU,0.00,0.00,VWS V14.00,2013-10-06 23:34:00,
2013-10-06 19:39:00,82.4,72.5,29.84,SSE,164,4.0,5.0,72,0.00,,FEW035CU,0.00,0.00,VWS V14.00,2013-10-06 23:39:00,
2013-10-06 19:44:00,82.3,72.4,29.84,SSE,164,4.0,4.0,72,0.00,,FEW035CU,0.00,0.00,VWS V14.00,2013-10-06 23:44:00,
2013-10-06 19:49:00,82.3,72.4,29.85,SSE,164,2.0,6.0,72,0.00,,FEW035CU,0.00,0.00,VWS V14.00,2013-10-06 23:49:00,
2013-10-06 19:54:00,82.2,72.3,29.85,SSE,164,3.0,3.0,72,0.00,,FEW035CU,0.00,0.00,VWS V14.00,2013-10-06 23:54:00,
2013-10-06 19:59:00,82.1,71.8,29.85,SSE,164,3.0,5.0,71,0.00,,FEW035CU,0.00,0.00,VWS V14.00,2013-10-06 23:59:00,
2013-10-06 20:04:00,82.1,71.8,29.85,SSE,164,0.0,0.0,71,0.00,,FEW035CU,0.00,0.00,VWS V14.00,2013-10-07 00:04:00,
2013-10-06 20:09:00,82.0,71.7,29.85,SSE,164,3.0,5.0,71,0.00,,FEW035CU,0.00,0.00,VWS V14.00,2013-10-07 00:09:00,
2013-10-06 20:14:00,82.0,71.7,29.85,SSE,164,0.0,1.0,71,0.00,,FEW035CU,0.00,0.00,VWS V14.00,2013-10-07 00:14:00,
2013-10-06 20:19:00,81.9,71.6,29.85,SSE,164,2.0,4.0,71,0.00,,FEW035CU,0.00,0.00,VWS V14.00,2013-10-07 00:19:00,
2013-10-06 20:24:00,81.8,71.5,29.85,SSE,164,0.0,3.0,71,0.00,,FEW035CU,0.00,0.00,VWS V14.00,2013-10-07 00:24:00,
2013-10-06 20:29:00,81.7,71.4,29.85,SSE,164,0.0,0.0,71,0.00,,FEW035CU,0.00,0.00,VWS V14.00,2013-10-07 00:29:00,
2013-10-06 20:34:00,81.6,71.3,29.86,SSE,164,0.0,3.0,71,0.00,,FEW035CU,0.00,0.00,VWS V14.00,2013-10-07 00:34:00,
2013-10-06 20:39:00,81.5,71.6,29.86,SSE,164,0.0,1.0,72,0.00,,FEW035CU,0.00,0.00,VWS V14.00,2013-10-07 00:39:00,
2013-10-06 20:44:00,81.4,71.5,29.86,SSE,164,0.0,0.0,72,0.00,,FEW035CU,0.00,0.00,VWS V14.00,2013-10-07 00:44:00,
2013-10-06 20:49:00,81.3,71.4,29.86,SSE,164,0.0,0.0,72,0.00,,FEW035CU,0.00,0.00,VWS V14.00,2013-10-07 00:49:00,
2013-10-06 20:54:00,81.2,71.3,29.86,SSE,164,0.0,0.0,72,0.00,,FEW035CU,0.00,0.00,VWS V14.00,2013-10-07 00:54:00,
2013-10-06 20:59:00,81.1,71.2,29.86,SSE,164,2.0,3.0,72,0.00,,FEW035CU,0.00,0.00,VWS V14.00,2013-10-07 00:59:00,
2013-10-06 21:04:00,81.1,71.2,29.87,SSE,164,3.0,3.0,72,0.00,,FEW035CU,0.00,0.00,VWS V14.00,2013-10-07 01:04:00,
2013-10-06 21:09:00,81.1,71.2,29.87,SSE,164,0.0,1.0,72,0.00,,FEW035CU,0.00,0.00,VWS V14.00,2013-10-07 01:09:00,
2013-10-06 21:14:00,81.0,71.1,29.87,SSE,164,0.0,1.0,72,0.00,,FEW035CU,0.00,0.00,VWS V14.00,2013-10-07 01:14:00,
2013-10-06 21:19:00,81.0,71.5,29.87,SSE,164,0.0,1.0,73,0.00,,FEW035CU,0.00,0.00,VWS V14.00,2013-10-07 01:19:00,
2013-10-06 21:24:00,80.9,71.4,29.87,SSE,164,0.0,0.0,73,0.00,,FEW035CU,0.00,0.00,VWS V14.00,2013-10-07 01:24:00,
2013-10-06 21:29:00,80.8,71.3,29.87,SSE,164,0.0,0.0,73,0.00,,FEW035CU,0.00,0.00,VWS V14.00,2013-10-07 01:29:00,
2013-10-06 21:34:00,80.7,71.2,29.86,SSE,164,0.0,0.0,73,0.00,,FEW035CU,0.00,0.00,VWS V14.00,2013-10-07 01:34:00,
2013-10-06 21:39:00,80.6,71.6,29.87,SSE,164,0.0,0.0,74,0.00,,FEW035CU,0.00,0.00,VWS V14.00,2013-10-07 01:39:00,
2013-10-06 21:44:00,80.5,71.5,29.87,SSE,164,0.0,0.0,74,0.00,,FEW035CU,0.00,0.00,VWS V14.00,2013-10-07 01:44:00,
2013-10-06 21:49:00,80.4,71.4,29.87,SSE,164,0.0,0.0,74,0.00,,FEW035CU,0.00,0.00,VWS V14.00,2013-10-07 01:49:00,
2013-10-06 21:54:00,80.3,71.3,29.87,SSE,164,0.0,1.0,74,0.00,,FEW035CU,0.00,0.00,VWS V14.00,2013-10-07 01:54:00,
2013-10-06 21:59:00,80.2,71.6,29.87,SSE,164,0.0,0.0,75,0.00,,FEW035CU,0.00,0.00,VWS V14.00,2013-10-07 01:59:00,
2013-10-06 22:04:00,80.1,71.5,29.87,SSE,164,0.0,0.0,75,0.00,,FEW035CU,0.00,0.00,VWS V14.00,2013-10-07 02:04:00,
2013-10-06 22:09:00,80.1,71.5,29.87,SSE,164,0.0,0.0,75,0.00,,FEW035CU,0.00,0.00,VWS V14.00,2013-10-07 02:09:00,
2013-10-06 22:14:00,80.0,71.4,29.87,SSE,164,0.0,0.0,75,0.00,,FEW035CU,0.00,0.00,VWS V14.00,2013-10-07 02:14:00,
2013-10-06 22:19:00,80.0,71.4,29.87,SSE,164,0.0,0.0,75,0.00,,FEW035CU,0.00,0.00,VWS V14.00,2013-10-07 02:19:00,
2013-10-06 22:24:00,79.9,71.3,29.87,SSE,164,0.0,0.0,75,0.00,,FEW035CU,0.00,0.00,VWS V14.00,2013-10-07 02:24:00,
2013-10-06 22:29:00,79.8,71.2,29.87,SSE,164,0.0,0.0,75,0.00,,FEW035CU,0.00,0.00,VWS V14.00,2013-10-07 02:29:00,
2013-10-06 22:34:00,79.8,71.2,29.87,SSE,164,0.0,0.0,75,0.00,,CLR,0.00,0.00,VWS V14.00,2013-10-07 02:34:00,
2013-10-06 22:39:00,79.8,71.2,29.88,SSE,164,0.0,0.0,75,0.00,,CLR,0.00,0.00,VWS V14.00,2013-10-07 02:39:00,
2013-10-06 22:45:00,79.7,71.1,29.87,SSE,164,0.0,0.0,75,0.00,,CLR,0.00,0.00,VWS V14.00,2013-10-07 02:45:00,
2013-10-06 22:50:00,79.7,71.1,29.87,SSE,164,0.0,0.0,75,0.00,,CLR,0.00,0.00,VWS V14.00,2013-10-07 02:50:00,
2013-10-06 22:55:00,79.6,71.0,29.87,SSE,164,0.0,0.0,75,0.00,,CLR,0.00,0.00,VWS V14.00,2013-10-07 02:55:00,
2013-10-06 23:00:00,79.4,71.2,29.87,SSE,164,0.0,0.0,76,0.00,,CLR,0.00,0.00,VWS V14.00,2013-10-07 03:00:00,
2013-10-06 23:05:00,79.3,71.1,29.87,SSE,164,0.0,0.0,76,0.00,,CLR,0.00,0.00,VWS V14.00,2013-10-07 03:05:00,
2013-10-06 23:10:00,79.3,71.1,29.87,SSE,164,0.0,0.0,76,0.00,,CLR,0.00,0.00,VWS V14.00,2013-10-07 03:10:00,
2013-10-06 23:15:00,79.2,71.0,29.87,SSE,164,0.0,0.0,76,0.00,,CLR,0.00,0.00,VWS V14.00,2013-10-07 03:15:00,
2013-10-06 23:20:00,79.2,71.0,29.87,SSE,164,0.0,0.0,76,0.00,,CLR,0.00,0.00,VWS V14.00,2013-10-07 03:20:00,
2013-10-06 23:25:00,79.2,71.4,29.86,SSE,164,0.0,0.0,77,0.00,,CLR,0.00,0.00,VWS V14.00,2013-10-07 03:25:00,
2013-10-06 23:30:00,79.2,71.4,29.86,SSE,164,0.0,0.0,77,0.00,,CLR,0.00,0.00,VWS V14.00,2013-10-07 03:30:00,
2013-10-06 23:35:00,79.2,71.4,29.86,SSE,164,0.0,0.0,77,0.00,,CLR,0.00,0.00,VWS V14.00,2013-10-07 03:35:00,
2013-10-06 23:40:00,79.1,71.3,29.86,SSE,164,0.0,0.0,77,0.00,,CLR,0.00,0.00,VWS V14.00,2013-10-07 03:40:00,
2013-10-06 23:45:00,79.0,71.2,29.86,SSE,164,0.0,0.0,77,0.00,,CLR,0.00,0.00,VWS V14.00,2013-10-07 03:45:00,
2013-10-06 23:50:00,79.0,71.2,29.86,SSE,164,0.0,0.0,77,0.00,,CLR,0.00,0.00,VWS V14.00,2013-10-07 03:50:00,
2013-10-06 23:55:00,78.9,71.1,29.85,SSE,164,0.0,0.0,77,0.00,,CLR,0.00,0.00,VWS V14.00,2013-10-07 03:55:00,